DECAYED

STARLINK-3255, 50201 (Decayed)

Orbit data source: Space-Track

STARLINK-3255, 50201 was a payload satellite owned by SpaceX/Seattle (US) in LEO that was launched on Sat, 18 Dec 2021 UTC via an FALCON 9 launch vehicle from the Air Force Western Test Range (AFWTR). Payload-class satellites include a variety of spacecraft equipped with specific instruments for various scientific and technological missions. These include communications satellites like Starlink; space stations such as the ISS; scientific satellites like the Hubble; Earth observation satellites from companies like Planet Labs, Umbra, and HawkEye 360; GPS; miniature CubeSats for education and research; and military/defense satellites.

Not visible in the next 10 days
Identifier
50201, 2021-125AX
Orbit
Decayed
Country
Flag of USUS
Related business
Manufacturer
SpaceX/Seattle
Mission
Decayed Commercial Communications
Bus & Motor
STARLINK, Unknown motor
Mass
290 kg wet, ~270 kg dry
Launch date (UTC)
2021-12-18 (5 years ago)
Launch vehicle
FALCON 9
Launch site
Air Force Western Test Range (AFWTR)
Object type
Payload
Rocket body
Debris
Shape & HBR
Box + 1 Pan, 10.1 m
Radar Cross Section
13.562 m², Large (>1 m²)

Expand to show TLE details & history
Last TLE update: 2 weeks ago

TLE from 2 weeks ago
0 STARLINK-3255
1 50201U 21125AX  26154.21412794  .09384798  12454-4  30067-3 0  9994
2 50201  53.1708  64.6717 0006095 257.7681 102.2687 16.44504582251756
Epoch: 2026-06-03T05:08Z
TLE epoch observation values (Epoch: 2026-06-03T05:08:20.654Z)
Latitude
0.00002°
Longitude
95.9097°
Altitude
155.64 km
Speed
7.814 km/s
True Right ascension
04h 18m 41s
True Declination
0° 00' 00"
Sunlit
Object was in daylight at epoch
Visualization orbit readout
Latitude
Unknown
Longitude
Unknown
Altitude
Unknown
Speed
Unknown
Apparent Right ascension
Unknown
Apparent Declination
Unknown
Sunlit
N/A
Visualization observer readout
Local Sidereal Time
14:02:53
Azimuth
Unknown
Elevation
Unknown
Doppler factor
Unknown
Orbital elements
Apogee altitude
158.095 km
Perigee altitude
150.132 km
Semi-major axis
6,532.251 km
Eccentricity
0.00061
Inclination
53.1708°
RAAN
64.6717°
Arg. of periapsis
257.7681°
True anomaly
102.33694°
Mean anomaly
102.2687°
Eccentric anomaly
102.30282°
Mean motion
4.11101 °/min
Orbital period
87.57 mins
BSTAR
0.00030067
Loading maneuver chart data...
Computing Atmospheric mass density...
Loading historical data...
Loading historical data...
Loading historical data...
Loading historical data...
Loading historical data...
Loading historical data...
Loading historical data...

Documentation

Showing up to 5 results
|